Hourly Data Report for July 08, 2021

TORONTO CITY CENTRE
ONTARIO
Current Station Operator: NAVCAN

43°37'39.000" N
79°23'46.000" W
76.80 m
6158359
71265
YTZ

Download Data

Hourly Data (July 2021)
Hourly Data Report for July 8, 2021
TIME
LST
Temp Definition
°C
Dew Point Definition
°C
Rel Hum Definition
%
Precip. Amount Definition
mm

Wind Dir Definition
10's deg

Wind Spd Definition
km/h
Visibility Definition
km
Stn Press Definition
kPa
Hmdx Definition


Wind Chill Definition


Weather Definition


00:00 17.2 13.4 78 0.0 5 24 16.1 100.46     LegendNANA
01:00 16.6 12.6 77 0.0 6 21 16.1 100.50     LegendNANA
02:00 16.5 12.9 79 0.0 6 26 16.1 100.45     LegendNANA
03:00 16.3 12.9 80 0.0 6 28 16.1 100.45     Rain
04:00 16.5 12.8 79 0.0 6 26 16.1 100.40     LegendNANA
05:00 16.1 12.7 80 0.0 6 22 16.1 100.41     LegendNANA
06:00 16.2 13.2 82 0.0 5 24 16.1 100.41     LegendNANA
07:00 16.5 13.8 84 0.0 6 32 16.1 100.36     LegendNANA
08:00 16.0 14.6 92 1.2 6 26 8.1 100.39     Thunderstorms,Moderate Rain, Fog
09:00 16.4 15.8 96 6.3 7 28 16.1 100.29     Rain
10:00 16.6 15.8 95 2.5 7 30 16.1 100.26     LegendNANA
11:00 16.5 16.0 97 3.5 7 26 6.4 100.22     Moderate Rain, Fog
12:00 16.7 15.8 94 7.6 6 15 12.9 100.25     Moderate Rain
13:00 17.8 16.3 91 0.5 4 11 16.1 100.22     LegendNANA
14:00 17.7 16.4 92 0.2 6 17 16.1 100.13     Rain
15:00 17.2 16.2 94 1.0 8 13 16.1 100.15     Rain
16:00 18.2 17.3 94 0.5 5 8 16.1 100.11     Rain
17:00 18.9 17.8 93 0.0 23 8 16.1 100.16     LegendNANA
18:00 18.4 17.4 94 0.0 24 5 16.1 100.14     LegendNANA
19:00 18.7 17.6 93 0.0 LegendMM 4 16.1 100.12     LegendNANA
20:00 18.4 17.8 96 0.0 10 5 11.3 100.12     LegendNANA
21:00 18.2 17.7 97 0.0 8 8 9.7 100.16     Fog
22:00 18.1 17.9 99 0.0 10 11 4.8 100.16     Fog
23:00 18.2 18.0 99 0.0 7 11 2.4 100.15     Fog

Notes on Data Quality.

Legend

  • E = Estimated
  • M = Missing
  • NA = Not Available*
  • [empty] = Indicates an unobserved value
Date modified: